Snowfall_Accumulation
0.0 0.0 0.0 0.0 0.0 0.0 0.0 0.0 0.0 nan nan nan nan nan nan nan nan nan nan nan nan nan nan nan nan nan nan
0.0 0.0 0.0 0.0 0.0 0.0 0.0 0.0 0.0 nan nan nan nan nan nan nan nan nan nan nan nan nan nan nan nan nan nan
0.0 0.0 0.0 0.0 0.0 0.0 0.0 0.0 0.0 nan nan nan nan nan nan nan nan nan nan nan nan nan nan nan nan nan nan
0.0 0.0 0.0 0.0 0.0 0.0 0.0 0.0 0.0 0.0 nan nan nan nan nan nan nan nan nan nan nan nan nan nan nan nan nan
0.0 0.0 0.0 0.0 0.0 0.0 0.0 0.0 0.0 0.0 0.0 0.0 0.0 0.0 0.0 nan nan nan nan nan nan nan nan nan nan nan nan
0.0 0.0 0.0 0.0 0.0 0.0 0.0 0.0 0.0 0.0 0.0 0.0 0.0 0.0 0.0 0.0 nan nan nan nan nan nan nan nan nan nan nan
0.0 0.0 0.0 0.0 0.0 0.0 0.0 0.0 0.0 0.0 0.0 0.0 0.0 0.0 0.0 0.0 nan nan nan nan nan nan nan nan nan nan nan
0.0 0.0 0.0 0.0 0.0 0.0 0.0 0.0 0.1 0.1 0.0 1.4 0.2 0.2 0.1 0.0 nan nan nan nan nan nan nan nan nan nan nan
nan nan nan nan nan 0.0 1.0 1.4 0.3 0.4 0.4 0.6 1.1 1.5 1.1 0.4 0.1 nan nan nan nan nan nan nan nan nan 0.0
0.0 0.0 nan nan nan 0.0 0.7 1.5 3.1 2.6 1.5 1.5 2.0 2.0 2.5 1.6 1.5 0.6 0.0 nan nan nan nan nan nan 0.0 0.0
0.0 0.0 0.0 0.1 0.0 0.2 0.2 1.3 2.6 3.9 1.4 1.6 5.5 3.1 2.8 2.9 1.9 1.6 1.2 0.6 0.0 0.0 nan nan nan 0.0 0.0
0.3 0.5 1.4 1.9 2.0 1.7 0.7 1.1 1.1 1.1 0.9 3.9 10.4 6.2 7.7 4.0 2.9 1.5 0.7 0.2 0.0 0.0 0.0 nan nan nan nan
0.8 2.3 2.7 3.4 3.1 3.8 3.5 3.7 5.4 3.2 3.2 4.9 7.3 7.0 6.6 5.6 4.0 2.0 0.4 0.0 0.0 0.0 0.0 0.0 0.0 0.0 0.0
0.8 1.2 2.1 5.4 4.8 5.0 6.8 7.5 7.4 6.8 4.9 5.8 4.8 5.2 7.4 3.9 2.7 1.4 1.1 0.9 0.0 0.0 0.0 0.0 0.0 0.0 0.0
1.5 1.9 2.4 4.5 5.6 6.3 8.0 8.2 8.8 7.6 6.9 5.3 2.2 2.2 3.4 3.7 4.4 1.4 0.1 0.0 0.0 0.0 0.0 0.0 0.0 0.0 0.0
2.5 3.2 4.7 6.3 7.8 8.8 9.4 8.5 8.0 5.9 6.1 5.7 6.7 7.4 6.5 3.9 3.3 0.4 0.0 0.0 0.0 0.0 0.0 0.0 0.0 0.0 0.0
5.8 6.2 7.2 8.0 9.4 8.7 9.1 6.6 6.1 5.8 7.3 8.5 11.1 10.9 9.8 8.1 2.0 nan 0.0 0.0 0.0 0.0 0.0 0.0 0.0 0.0 0.0
Water_Equivalent
0.00 0.00 0.00 0.00 0.00 0.00 0.00 0.00 0.00 nan nan nan nan nan nan nan nan nan nan nan nan nan nan nan nan nan nan
0.00 0.00 0.00 0.00 0.00 0.00 0.00 0.00 0.00 nan nan nan nan nan nan nan nan nan nan nan nan nan nan nan nan nan nan
0.00 0.00 0.00 0.00 0.00 0.00 0.00 0.00 0.00 nan nan nan nan nan nan nan nan nan nan nan nan nan nan nan nan nan nan
0.00 0.00 0.00 0.00 0.00 0.00 0.00 0.00 0.00 0.00 nan nan nan nan nan nan nan nan nan nan nan nan nan nan nan nan nan
0.00 0.00 0.00 0.00 0.00 0.00 0.00 0.00 0.00 0.00 0.00 0.00 0.00 0.00 0.00 nan nan nan nan nan nan nan nan nan nan nan nan
0.00 0.00 0.00 0.00 0.00 0.00 0.00 0.00 0.00 0.00 0.00 0.00 0.00 0.00 0.00 0.00 nan nan nan nan nan nan nan nan nan nan nan
0.00 0.00 0.00 0.00 0.00 0.00 0.00 0.00 0.00 0.00 0.00 0.00 0.00 0.00 0.00 0.00 nan nan nan nan nan nan nan nan nan nan nan
0.00 0.00 0.00 0.00 0.00 0.00 0.00 0.01 0.03 0.02 0.00 0.23 0.06 0.06 0.02 0.00 nan nan nan nan nan nan nan nan nan nan nan
nan nan nan nan nan 0.00 0.18 0.25 0.12 0.14 0.15 0.12 0.19 0.23 0.23 0.12 0.03 nan nan nan nan nan nan nan nan nan 0.00
0.00 0.00 nan nan nan 0.00 0.13 0.26 0.49 0.41 0.25 0.22 0.29 0.31 0.41 0.31 0.34 0.13 0.00 nan nan nan nan nan nan 0.00 0.00
0.00 0.01 0.01 0.05 0.01 0.03 0.04 0.25 0.45 0.64 0.24 0.25 0.71 0.45 0.45 0.39 0.28 0.25 0.19 0.08 0.00 0.00 nan nan nan 0.00 0.00
0.10 0.22 0.35 0.42 0.47 0.40 0.17 0.22 0.19 0.19 0.17 0.63 1.20 0.77 0.88 0.48 0.33 0.19 0.09 0.02 0.01 0.00 0.00 nan nan nan nan
0.31 0.60 0.64 0.73 0.60 0.57 0.54 0.59 0.79 0.54 0.55 0.74 0.95 0.87 0.77 0.60 0.41 0.22 0.04 0.00 0.00 0.00 0.00 0.00 0.00 0.00 0.00
0.18 0.28 0.45 0.84 0.70 0.71 0.92 1.03 0.99 0.91 0.69 0.77 0.59 0.56 0.75 0.41 0.28 0.15 0.13 0.11 0.00 0.00 0.00 0.00 0.00 0.00 0.00
0.29 0.33 0.44 0.69 0.74 0.87 1.06 1.07 1.06 0.90 0.79 0.64 0.27 0.26 0.34 0.38 0.44 0.14 0.01 0.00 0.00 0.00 0.00 0.00 0.00 0.00 0.00
0.45 0.54 0.66 0.80 0.97 1.17 1.23 1.04 0.92 0.68 0.70 0.67 0.69 0.76 0.71 0.47 0.33 0.04 0.00 0.00 0.00 0.00 0.00 0.00 0.00 0.00 0.00
0.87 0.86 0.89 0.98 1.15 1.04 1.04 0.79 0.72 0.68 0.83 0.90 1.13 1.11 1.00 0.82 0.25 nan 0.00 0.00 0.00 0.00 0.00 0.00 0.00 0.00 0.00
SL_Ratio
nan nan nan nan nan nan nan nan nan nan nan nan nan nan nan nan nan nan nan nan nan nan nan nan nan nan nan
nan nan nan nan nan nan nan nan nan nan nan nan nan nan nan nan nan nan nan nan nan nan nan nan nan nan nan
nan nan nan nan nan nan nan nan nan nan nan nan nan nan nan nan nan nan nan nan nan nan nan nan nan nan nan
nan nan nan nan nan nan nan nan nan nan nan nan nan nan nan nan nan nan nan nan nan nan nan nan nan nan nan
nan nan nan nan nan nan nan nan nan nan nan nan nan nan nan nan nan nan nan nan nan nan nan nan nan nan nan
nan nan nan nan nan nan nan nan nan nan nan nan nan nan nan nan nan nan nan nan nan nan nan nan nan nan nan
nan nan nan nan nan nan nan nan nan nan nan 2.5 2.1 nan nan nan nan nan nan nan nan nan nan nan nan nan nan
nan nan nan nan nan nan nan 2.5 2.5 2.5 nan 5.9 2.5 2.5 2.5 nan nan nan nan nan nan nan nan nan nan nan nan
nan nan nan nan nan nan 5.4 5.6 2.5 2.5 2.5 4.9 5.6 6.3 4.9 3.6 2.8 nan nan nan nan nan nan nan nan nan nan
6.3 nan nan nan nan nan 5.4 5.5 6.3 6.4 5.8 6.8 7.0 6.5 6.2 5.1 4.3 4.5 5.0 nan nan nan nan nan nan nan nan
nan 2.5 2.5 2.5 2.6 5.4 5.5 5.3 5.9 6.1 5.9 6.4 7.7 7.0 6.1 7.4 6.7 6.3 6.4 6.7 nan nan nan nan nan nan nan
2.6 2.5 4.2 4.5 4.2 4.2 4.3 4.9 5.6 5.9 5.4 6.1 8.7 8.1 8.7 8.3 8.6 8.1 8.2 7.7 6.6 5.0 nan nan nan nan nan
2.7 3.8 4.3 4.7 5.2 6.6 6.5 6.4 6.9 6.0 5.9 6.6 7.7 8.0 8.5 9.4 9.8 9.1 8.9 8.3 nan nan nan nan nan nan nan
4.6 4.1 4.6 6.5 7.0 7.0 7.4 7.2 7.5 7.6 7.1 7.6 8.2 9.3 9.8 9.6 9.6 9.3 8.5 8.7 7.9 nan nan nan nan nan nan
5.3 5.8 5.4 6.6 7.6 7.3 7.6 7.6 8.3 8.4 8.7 8.2 8.2 8.5 9.8 9.9 9.9 9.8 9.3 8.3 nan nan nan nan nan nan nan
5.5 6.0 7.2 7.9 8.0 7.6 7.6 8.1 8.7 8.6 8.8 8.6 9.6 9.8 9.3 8.3 9.9 10.0 nan nan nan nan nan nan nan nan nan
6.7 7.2 8.1 8.1 8.2 8.3 8.7 8.4 8.6 8.6 8.8 9.5 9.8 9.8 9.8 9.9 8.2 nan nan nan nan nan nan nan nan nan nan